Location: Cz?stochówka
(50.8142°N, 19.0915°E)
Time: 14:09:29
(UTC+00:00)

Cosmos 2366 rocket - Pass Details

Date: 13 April 2026
Orbit: 954 x 996 km, 82.9° (Epoch: 16 May)

Event Time Altitude Azimuth Distance (km) Brightness Sun altitude
Rises 20:29:19 0° 218° (SW) 3,643 6.9 -23.2°
Reaches altitude 10° 20:32:05 10° 228° (SW) 2,695 6.2 -23.4°
Maximum altitude 20:37:36 34° 292° (WNW) 1,533 5.5 -23.9°
Drops below altitude 10° 20:43:09 10° 356° (N) 2,696 7.1 -24.4°
Sets 20:45:56 0° 6° (N) 3,645 7.8 -24.7°
